CLUSTER II-FM5 (RUMBA) 1 26463U 00045A 21113.23933364 .00000308 00000-0 00000+0 0 9991 2 26463 136.8842 345.7513 5851300 195.9378 0.6458 0.44266233 24297 CLUSTER II-FM8 (TANGO) 1 26464U 00045B 21113.20205272 .00000330 00000-0 00000+0 0 9994 2 26464 132.6249 344.0570 4820713 190.8188 0.6093 0.44219732 59637